STARLINK-34527, 64482

Orbit data source: Space-Track

STARLINK-34527, 64482 is a payload satellite owned by SpaceX/Seattle (US) in LEO that was launched on Mon, 23 Jun 2025 UTC via an FALCON 9 launch vehicle from the Air Force Eastern Test Range (AFETR). Payload-class satellites include a variety of spacecraft equipped with specific instruments for various scientific and technological missions. These include communications satellites like Starlink; space stations such as the ISS; scientific satellites like the Hubble; Earth observation satellites from companies like Planet Labs, Umbra, and HawkEye 360; GPS; miniature CubeSats for education and research; and military/defense satellites.

Loading next visibility...
Identifier
64482, 2025-133L
Orbit
LEO
Country
Flag of USUS
Related business
Manufacturer
SpaceX/Seattle
Mission
Operational Commercial Communications
Bus & Motor
STARLINK V2MO, Unknown motor
Mass
575 kg wet, ~530 kg dry
Launch date (UTC)
2025-06-23 (1 year ago)
Launch vehicle
FALCON 9
Launch site
Air Force Eastern Test Range (AFETR)
Object type
Payload
Rocket body
Debris
Shape & HBR
Box + 2 Pan, 17.7 m
Radar Cross Section
36.964 m², Large (>1 m²)

Expand to show TLE details & history
Last TLE update: 1 day ago

TLE from 1 day ago
0 STARLINK-34527
1 64482U 25133L   26170.91058028  .00025884  00000-0  88274-3 0  9996
2 64482  53.1613   1.6549 0001104  93.0153 267.0974 15.30210293 56841
Epoch: 2026-06-19T21:51Z
TLE epoch observation values (Epoch: 2026-06-19T21:51:14.136Z)
Latitude
-0.00002°
Longitude
125.71321°
Altitude
476.123 km
Speed
7.629 km/s
True Right ascension
00h 06m 37s
True Declination
0° 00' 00"
Sunlit
Object was in daylight at epoch
Visualization orbit readout
Latitude
Unknown
Longitude
Unknown
Altitude
Unknown
Speed
Unknown
Apparent Right ascension
Unknown
Apparent Declination
Unknown
Sunlit
N/A
Visualization observer readout
Local Sidereal Time
10:18:04
Azimuth
Unknown
Elevation
Unknown
Doppler factor
Unknown
Orbital elements
Apogee altitude
476.197 km
Perigee altitude
474.684 km
Semi-major axis
6,853.578 km
Eccentricity
0.00011
Inclination
53.1613°
RAAN
1.6549°
Arg. of periapsis
93.0153°
True anomaly
267.08477°
Mean anomaly
267.0974°
Eccentric anomaly
267.09108°
Mean motion
3.82531 °/min
Orbital period
94.11 mins
BSTAR
0.00088274
Loading maneuver chart data...
Computing Atmospheric mass density...
Loading historical data...
Loading historical data...
Loading historical data...
Loading historical data...
Loading historical data...
Loading historical data...
Loading historical data...

Documentation

Showing up to 5 results
|